Location: Newark
(42.7133°N, 87.7910°W)
Time: 02:30:00
(UTC+00:00)

deb Explorer IX - All Passes

Search period start: 17 September 2019 00:00
Search period end: 27 September 2019 00:00
Orbit: 543 x 1107 km, 38.8° (Epoch: 14 September)

Date Brightness Start Highest point End Pass type
(mag) Time Alt. Az. Time Alt. Az. Time Alt. Az.
17 Sep - 06:42:39 10° SSE 06:43:40 11° SSE 06:44:39 10° SE night (unlit)
17 Sep - 08:25:40 10° SW 08:29:55 30° SSE 08:33:45 10° E visible
17 Sep - 10:12:03 10° WSW 10:16:25 50° S 10:20:24 10° ESE visible
17 Sep - 11:58:58 10° W 12:02:51 37° SSW 12:06:38 10° SE daylight
17 Sep - 13:46:53 10° WSW 13:48:58 14° SSW 13:51:06 10° S daylight
18 Sep - 06:19:58 10° SSE 06:21:43 12° SSE 06:23:24 10° SE night (unlit)
18 Sep - 08:03:35 10° SW 08:08:03 31° SSE 08:12:00 10° E visible
18 Sep - 09:50:04 10° WSW 09:54:33 51° S 09:58:36 10° ESE visible
18 Sep - 11:37:04 10° W 11:41:00 37° SSW 11:44:47 10° SE daylight
18 Sep - 13:25:07 10° WSW 13:27:06 13° SSW 13:29:06 10° S daylight
19 Sep - 05:57:30 10° S 05:59:47 13° SSE 06:01:56 10° ESE night (unlit)
19 Sep - 07:41:29 10° SW 07:46:09 33° SSE 07:50:15 10° E visible
19 Sep - 09:28:04 10° WSW 09:32:42 52° S 09:36:49 10° ESE visible
19 Sep - 11:15:08 10° W 11:19:10 37° SSW 11:22:56 10° SE daylight
19 Sep - 13:03:20 10° WSW 13:05:14 13° SSW 13:07:07 10° S daylight
20 Sep - 05:35:06 10° S 05:37:50 14° SSE 05:40:24 10° ESE night (unlit)
20 Sep - 07:19:22 10° SW 07:24:15 34° SSE 07:28:29 10° E visible
20 Sep - 09:06:03 10° WSW 09:10:50 53° S 09:15:03 10° ESE visible
20 Sep - 10:53:11 10° W 10:57:19 37° SSW 11:01:08 10° SE visible
20 Sep - 12:41:31 10° WSW 12:43:22 13° SSW 12:45:11 10° S daylight
21 Sep - 05:12:45 10° S 05:15:53 15° SSE 05:18:48 10° ESE night (unlit)
21 Sep - 06:57:15 10° SW 07:02:20 36° SSE 07:06:44 10° E night (unlit)
21 Sep - 08:44:01 10° WSW 08:48:58 54° S 08:53:16 10° ESE visible
21 Sep - 10:31:14 10° W 10:35:28 37° SSW 10:39:20 10° SE visible
21 Sep - 12:19:41 10° WSW 12:21:29 12° SSW 12:23:16 10° S daylight
22 Sep - 04:50:25 10° S 04:53:55 16° SSE 04:57:10 10° ESE night (unlit)
22 Sep - 06:35:07 10° SW 06:40:25 38° SSE 06:44:59 10° E night (unlit)
22 Sep - 08:21:57 10° WSW 08:27:05 55° S 08:31:30 10° ESE visible
22 Sep - 10:09:15 10° W 10:13:36 37° SSW 10:17:32 10° SE visible
22 Sep - 11:57:48 10° WSW 11:59:38 12° SSW 12:01:23 10° S daylight
23 Sep - 04:28:06 10° S 04:31:57 17° SSE 04:35:30 10° ESE night (unlit)
23 Sep - 06:12:59 10° SW 06:18:30 39° SSE 06:23:13 10° E night (unlit)
23 Sep - 07:59:53 10° WSW 08:05:12 56° S 08:09:45 10° ESE visible
23 Sep - 09:47:15 10° W 09:51:45 38° SSW 09:55:45 10° SE visible
23 Sep - 11:35:54 10° WSW 11:37:45 12° SW 11:39:32 10° S daylight
24 Sep - 04:05:49 10° S 04:09:58 18° SSE 04:13:48 10° ESE night (unlit)
24 Sep - 05:50:50 10° SW 05:56:33 41° SSE 06:01:28 10° E night (unlit)
24 Sep - 07:37:48 10° WSW 07:43:19 57° S 07:47:59 10° ESE visible
24 Sep - 09:25:13 10° W 09:29:53 38° SSW 09:33:59 10° SE visible
24 Sep - 11:13:58 10° WSW 11:15:52 13° SW 11:17:43 10° S visible
25 Sep - 03:43:32 10° S 03:47:59 19° SSE 03:52:05 10° ESE night (unlit)
25 Sep - 05:28:40 10° SW 05:34:36 42° SSE 05:39:41 10° E night (unlit)
25 Sep - 07:15:43 10° WSW 07:21:25 58° S 07:26:13 10° ESE night (unlit)
25 Sep - 09:03:11 10° W 09:08:02 38° SSW 09:12:13 10° SE visible
25 Sep - 10:51:59 10° WSW 10:53:59 13° SW 10:55:55 10° S visible
26 Sep - 03:21:16 10° SSW 03:25:59 20° SSE 03:30:20 10° ESE night (unlit)
26 Sep - 05:06:31 10° SW 05:12:38 44° SSE 05:17:54 10° E night (unlit)
26 Sep - 06:53:36 10° WSW 06:59:30 58° S 07:04:28 10° ESE night (unlit)
26 Sep - 08:41:08 10° W 08:46:08 39° SSW 08:50:28 10° SE visible
26 Sep - 10:29:58 10° WSW 10:32:07 13° SW 10:34:09 10° S visible
